User: anonymous   Login
Location: Oshawa
(43.9000°N, 78.8670°W)
Time: 06:18:35
(UTC-05:00)
Language:

CARTOSAT-1 - Orbit

View from above orbital plane
View from above orbital plane
View from above satellite
View from above satellite

Ground track
Ground track

The orbit data is extracted from the following two-line orbital elements,

1 28649U 05017A   17058.20955940  .00000199  00000-0  30672-4 0  9998
2 28649  97.8713 134.2878 0003390  58.2787 301.8767 14.83452722639672
Epoch (UTC): 27 February 2017 05:01:45
Eccentricity: 0.0003390
inclination: 97.8713°
perigee height: 616 km
apogee height: 621 km
right ascension of ascending node: 134.2878°
argument of perigee: 58.2787°
revolutions per day: 14.83452722
mean anomaly at epoch: 301.8767°
orbit number at epoch: 63967

The dashed part of the orbit path shows where the satellite is in the earth's shadow,  

DLR